GFSSGP_850_thetae_021.txt.gz
Theta_e
314 317 323 326 322 317 320 322 319 319 319 320 321 320 319 321 322 321 324 326 325 320 314 314 314 314 314 317 319 320 323 324 325 325 325 326 326 325 325 324 323 323 323 323 323 322 321 321 321
317 321 325 326 321 322 321 319 319 318 319 320 320 321 319 320 320 320 321 324 324 319 314 314 313 314 314 314 314 315 316 318 320 322 321 321 320 320 317 315 315 317 318 320 320 321 321 322 322
318 323 326 320 320 320 318 318 316 318 319 319 319 320 320 320 320 319 319 319 320 315 314 314 314 314 314 314 314 313 314 315 316 316 315 313 312 312 312 312 311 311 311 312 312 312 312 313 316
319 321 322 316 318 316 318 316 317 317 319 319 319 317 319 320 320 318 318 318 317 315 315 315 314 313 312 311 311 312 312 312 311 311 310 308 307 305 304 304 303 303 303 303 303 303 304 305 307
320 322 319 318 317 317 317 318 318 316 317 318 319 318 317 318 319 317 317 318 317 315 314 314 313 312 310 309 309 308 308 307 306 305 304 304 303 303 303 303 303 303 303 303 303 303 303 302 303
319 319 317 319 320 318 318 319 319 317 318 318 318 317 318 318 317 316 316 317 317 315 314 313 313 311 309 309 308 308 307 306 304 303 303 303 303 303 303 303 303 303 303 302 302 302 302 302 302
319 318 320 320 319 318 318 319 317 317 316 317 318 315 316 317 317 316 315 316 317 315 314 313 312 311 309 308 308 308 306 304 303 303 303 303 303 303 303 303 303 303 303 303 302 302 302 302 302
319 315 318 317 318 320 317 318 318 318 317 318 318 315 316 318 317 315 315 316 316 316 314 313 312 311 309 308 308 307 305 304 303 303 303 303 302 302 303 303 304 304 305 305 305 304 303 302 302
319 314 315 318 320 320 318 317 318 318 317 318 318 318 318 318 317 315 314 314 315 315 314 312 311 310 309 308 307 307 304 303 303 303 302 302 303 303 304 304 305 305 305 306 306 305 303 301 301
319 315 317 318 318 318 317 317 317 317 316 316 317 317 317 317 317 316 315 315 315 314 314 313 312 311 310 308 307 306 305 305 303 303 303 303 303 303 303 304 304 304 305 305 305 304 303 301 300
318 315 317 319 319 318 317 317 317 316 313 316 317 317 317 316 315 315 315 315 315 314 313 313 311 311 310 309 307 307 306 305 304 303 303 302 302 303 303 303 304 304 304 304 304 303 303 302 300
318 318 319 319 319 318 316 316 317 316 317 318 318 318 317 317 316 316 315 315 314 313 313 312 311 310 310 309 307 306 306 305 304 303 302 302 302 302 302 303 303 303 303 303 303 304 303 302 300
317 317 319 319 318 318 317 316 314 316 317 318 317 317 317 317 317 317 316 315 313 313 313 312 311 310 309 309 307 306 305 304 303 302 302 302 302 302 302 302 303 303 303 302 303 303 304 302 299
317 317 317 317 318 317 315 314 316 317 317 317 317 317 317 317 317 317 316 315 314 313 312 312 311 310 309 308 307 305 304 304 303 302 302 301 301 301 302 302 302 302 302 302 302 303 302 300 299
317 316 312 314 316 314 316 313 313 318 316 317 318 317 317 317 317 317 317 316 315 313 312 312 310 309 308 308 306 305 303 303 302 301 301 301 301 301 301 301 301 301 301 301 301 301 301 300 298
315 314 314 315 314 315 316 315 314 318 316 316 317 317 318 317 317 317 316 315 314 313 312 311 310 309 308 307 305 303 302 302 302 301 301 301 301 301 301 301 301 301 300 300 300 300 300 298 297
312 313 313 314 314 313 313 314 313 317 316 316 317 317 318 318 317 316 316 315 315 313 312 310 310 309 307 306 305 303 302 302 301 301 301 300 300 300 300 300 300 300 299 300 299 299 299 298 297
312 313 313 313 314 313 312 313 313 316 315 315 317 317 317 317 317 316 316 315 315 313 312 311 310 308 307 306 304 302 301 301 300 300 300 299 299 299 299 299 300 299 299 299 298 298 297 297 297
312 312 311 313 314 315 314 315 314 314 313 312 315 316 317 317 317 317 317 316 315 313 312 311 309 308 307 305 304 302 302 301 300 300 299 299 299 298 298 298 298 298 298 298 298 298 297 296 295
313 313 312 313 312 312 312 313 314 311 313 315 314 315 316 317 317 316 316 316 314 314 312 310 309 308 307 306 306 304 304 301 301 300 298 298 298 297 297 298 298 297 298 298 297 297 296 294 293
313 312 313 312 312 311 311 311 312 311 313 315 316 317 316 316 316 316 315 315 314 313 312 311 309 309 308 307 305 303 300 299 299 298 298 298 297 297 296 297 297 297 297 297 296 296 295 293 292
314 311 312 313 313 313 311 314 311 312 311 311 313 315 317 316 316 315 314 314 314 313 312 311 309 309 308 306 304 304 304 304 304 302 301 299 297 296 296 296 296 296 296 296 296 295 293 292 291
314 312 311 313 312 312 314 314 314 312 311 311 311 315 316 317 316 315 314 313 314 313 312 311 309 308 307 306 305 304 303 302 302 300 299 298 297 296 295 295 295 296 295 295 295 294 292 291 290
310 312 311 310 309 313 312 313 312 310 312 311 312 314 316 317 316 313 313 313 313 312 310 310 309 308 307 306 306 305 304 302 301 300 298 297 297 296 295 295 295 295 295 294 294 292 291 290 290
310 311 312 311 310 314 310 311 314 311 310 310 311 315 317 317 313 314 314 313 313 312 310 309 308 307 307 307 306 306 305 303 301 300 299 297 297 296 295 295 294 294 294 294 293 292 291 290 289
308 312 311 310 312 313 308 311 311 311 312 314 315 317 316 313 313 314 313 313 312 311 310 308 307 307 307 307 306 306 305 304 301 300 299 298 297 297 296 295 293 293 293 293 293 292 291 290 289
310 311 311 313 298 308 313 310 310 310 309 307 308 310 311 313 313 313 312 311 311 310 310 310 309 308 307 308 306 306 305 304 303 301 299 297 296 295 294 293 293 292 293 293 292 291 290 289 288
309 308 311 310 311 310 313 311 313 311 311 310 308 306 310 312 312 312 311 311 311 310 310 309 309 309 308 307 305 306 306 305 302 300 299 297 295 293 293 293 292 292 292 292 291 290 289 288 288
307 309 309 309 311 315 314 313 310 308 308 310 308 310 310 311 311 311 311 311 310 309 309 310 309 309 308 307 306 305 306 305 302 301 299 297 294 293 292 292 291 291 291 291 290 289 288 288 287
308 310 311 312 312 310 312 313 313 310 307 308 309 311 311 311 311 312 311 311 310 310 309 310 309 308 308 307 306 306 304 303 301 300 299 296 294 292 292 291 290 291 291 290 289 288 287 287 286

GFSSGP_850_thetae_024.txt.gz
Theta_e
314 316 320 326 319 316 319 321 317 319 319 319 320 319 318 320 320 319 324 324 322 318 315 314 315 318 321 331 329 329 329 328 327 323 324 325 325 324 323 323 322 322 323 323 323 324 324 322 321
317 320 324 326 319 320 319 317 318 317 318 320 320 319 319 320 321 322 323 323 322 318 314 314 314 314 313 315 318 319 322 322 322 321 320 322 320 318 316 315 314 315 316 316 315 314 316 318 319
319 322 325 318 317 319 318 316 315 317 318 318 319 319 319 319 320 320 321 321 322 320 314 313 313 313 313 314 314 315 315 318 318 317 317 316 314 312 311 311 311 310 310 310 310 310 310 311 312
319 320 320 318 320 317 317 315 316 316 318 318 318 316 318 320 320 320 319 319 320 319 314 314 313 314 314 314 313 313 314 314 314 313 312 310 309 307 305 304 303 303 303 303 303 303 303 303 304
320 322 317 318 316 314 314 316 316 315 317 318 318 316 317 318 319 318 317 318 318 316 314 314 314 314 313 311 311 311 311 310 309 308 306 305 304 303 303 303 303 303 303 303 303 303 303 303 303
319 318 316 318 316 317 316 318 317 316 317 317 317 316 317 318 318 318 317 317 317 316 314 314 314 313 312 310 309 309 308 308 307 306 305 304 303 303 303 303 303 303 303 304 304 304 303 303 303
317 316 318 316 318 318 316 318 316 316 316 316 318 315 316 318 318 317 316 316 317 316 314 314 313 312 310 309 308 308 308 307 306 304 304 303 304 304 304 304 304 305 305 305 305 304 304 302 302
319 313 316 315 316 318 317 317 317 317 316 318 318 314 316 318 318 317 315 315 316 316 315 313 313 312 311 309 308 308 308 306 304 304 303 304 304 304 304 304 305 305 305 306 306 305 305 304 302
319 311 313 315 318 318 317 316 317 317 317 317 317 318 318 318 317 316 315 315 315 316 315 314 313 311 310 309 308 308 307 305 303 303 303 303 303 304 304 304 305 305 305 305 306 305 305 305 303
317 311 312 313 317 316 317 316 317 316 315 316 317 318 318 317 317 317 317 316 315 315 316 315 313 311 311 310 308 307 307 305 304 304 304 303 303 304 304 304 304 304 305 305 305 305 305 305 304
317 314 314 318 318 318 316 315 317 315 313 316 317 318 318 317 317 317 317 317 317 316 315 315 314 312 311 310 308 307 306 305 305 304 304 303 304 304 304 304 304 304 304 304 305 305 305 305 305
316 317 316 318 319 317 316 316 315 315 317 318 318 318 317 317 317 316 316 316 316 315 314 314 313 312 311 309 308 307 306 305 305 304 304 304 303 303 304 304 303 303 304 304 304 304 304 305 304
316 316 318 319 318 318 316 315 314 315 317 317 317 317 317 317 317 317 316 316 316 315 314 313 313 312 311 309 308 306 306 305 304 304 303 303 303 303 303 303 303 303 303 303 303 303 303 304 303
316 316 317 317 317 317 315 314 316 317 317 317 317 316 317 317 317 317 316 316 316 316 315 313 313 312 311 310 309 308 306 304 304 303 303 303 303 302 302 303 303 303 303 303 303 303 303 303 303
317 314 313 315 316 313 314 312 312 317 316 316 317 317 317 317 316 317 317 317 317 316 315 314 313 312 311 310 309 307 306 305 304 304 303 302 302 302 302 302 302 302 302 302 302 302 302 302 303
314 313 313 312 312 314 314 314 313 317 316 317 317 317 316 317 317 317 317 317 317 316 315 314 313 312 310 310 309 307 306 305 304 303 302 301 301 301 301 301 301 301 301 302 302 301 301 301 301
310 310 310 312 313 312 311 313 313 317 316 316 318 318 317 317 317 317 317 317 317 316 315 314 313 312 311 309 308 307 305 304 303 302 301 300 300 300 300 300 301 301 301 301 301 301 300 300 301
309 310 311 312 312 312 311 312 313 315 314 314 316 317 317 317 317 318 318 317 317 316 316 315 313 312 311 309 307 305 304 304 302 302 300 300 299 299 299 300 300 300 300 300 300 299 299 299 299
310 309 310 311 311 313 312 313 313 314 314 312 314 315 316 317 317 318 317 317 317 316 315 315 313 312 310 309 307 305 306 305 303 302 301 299 299 299 299 299 299 299 300 299 299 298 298 298 298
311 312 312 312 311 310 311 312 313 312 313 314 313 314 314 315 317 317 317 317 316 316 316 314 314 313 311 310 309 307 307 307 305 303 302 300 299 298 298 298 298 298 299 299 298 298 297 297 296
310 311 312 312 311 309 308 311 310 309 312 313 314 314 314 314 316 317 317 317 316 315 315 315 314 313 312 310 308 307 305 304 303 303 301 300 299 298 297 297 297 297 298 298 298 297 296 296 296
312 310 311 311 311 312 310 313 311 309 310 310 312 314 314 315 316 317 317 316 315 316 315 314 314 313 311 310 309 308 308 307 307 305 303 301 299 298 297 297 296 296 297 297 297 296 296 296 296
313 310 310 310 309 309 311 311 312 310 311 310 311 313 316 317 317 317 317 316 315 315 314 313 313 312 311 310 309 308 307 307 306 305 303 300 299 298 297 296 296 296 296 296 296 296 296 296 295
309 311 310 307 308 313 311 311 312 310 311 311 311 314 315 316 317 317 316 315 315 314 313 313 312 312 311 309 308 307 307 307 306 305 303 302 299 298 297 296 295 295 295 295 295 295 295 295 294
310 310 310 310 310 313 309 310 313 310 310 309 310 313 316 317 317 317 314 314 314 314 313 313 312 311 311 310 308 308 308 307 307 306 305 303 301 299 298 296 296 295 294 294 294 294 294 294 293
309 310 311 309 312 313 306 310 311 309 310 313 314 314 315 316 316 316 315 314 314 313 313 312 312 311 310 310 309 308 307 307 307 306 305 304 302 300 298 297 296 295 293 293 293 293 293 293 292
308 309 310 309 295 305 310 310 311 307 308 307 309 312 311 312 313 313 313 314 314 313 313 312 312 311 310 310 308 308 307 307 307 306 305 303 301 299 297 296 295 294 293 293 292 293 292 292 292
308 307 310 309 310 308 311 310 312 311 311 308 307 307 311 311 311 311 312 313 313 312 312 311 311 311 310 309 308 308 308 307 306 305 305 304 302 299 297 296 294 293 293 292 292 292 292 291 290
306 308 308 308 312 315 315 314 313 311 308 306 307 310 311 312 314 312 311 312 311 310 310 310 310 310 309 308 308 307 308 307 305 304 304 303 301 299 297 295 293 293 292 291 291 291 291 291 290
306 309 310 312 313 312 313 314 313 313 311 311 311 309 312 312 313 310 311 310 310 310 310 310 310 309 310 309 308 307 306 306 305 304 304 302 301 299 297 295 293 292 292 291 290 290 290 290 289

GFSSGP_850_thetae_030.txt.gz
Theta_e
314 316 318 323 315 314 318 317 316 316 317 317 317 317 316 318 319 316 322 323 325 321 316 317 317 318 328 328 327 332 332 332 331 332 331 327 324 323 324 324 322 322 320 320 321 321 322 323 323
314 317 321 324 317 314 311 316 317 314 316 318 318 319 318 317 321 322 323 320 322 321 317 316 315 322 323 327 326 330 332 332 332 332 327 320 321 323 323 322 322 321 320 318 316 314 313 313 314
317 319 323 314 312 312 314 314 315 316 317 318 318 318 318 319 320 322 322 320 321 320 316 315 315 329 330 330 333 333 333 331 331 324 319 319 317 316 315 315 313 313 313 312 311 309 308 307 308
317 320 318 317 318 316 315 316 313 315 316 317 317 315 318 320 319 320 321 321 321 319 316 314 314 321 331 325 329 330 323 321 318 315 315 315 314 313 312 311 311 310 307 305 304 304 304 304 304
318 319 311 315 314 313 311 315 314 314 315 316 316 314 316 317 319 319 318 320 320 319 317 314 314 314 316 315 314 315 314 315 314 314 313 312 311 310 308 306 305 304 304 304 304 304 304 304 305
317 316 315 314 313 313 312 316 314 314 315 315 316 315 317 317 317 318 318 317 318 319 319 314 314 313 313 313 314 314 314 313 312 311 310 309 307 305 304 303 303 303 304 304 305 305 306 306 305
316 312 315 313 313 314 315 314 314 314 314 315 317 315 317 317 317 317 318 317 317 318 319 316 314 313 313 313 314 313 312 311 310 309 307 306 305 304 303 303 303 304 305 305 306 306 306 306 306
318 312 315 312 314 315 315 314 315 315 316 317 316 314 316 318 318 317 317 317 316 317 318 318 314 314 313 314 313 312 311 310 308 307 306 304 303 303 303 304 304 305 306 306 306 306 306 306 305
317 310 310 313 312 314 315 314 316 316 316 316 317 317 318 318 318 317 317 317 317 316 316 317 315 314 314 314 313 311 309 308 308 307 305 303 303 303 303 304 304 305 305 305 306 305 305 305 305
315 308 310 309 311 313 315 315 316 315 315 315 316 317 317 317 317 317 317 317 317 317 316 316 316 315 314 313 312 311 309 308 308 307 305 303 303 303 303 303 304 304 305 304 305 305 305 305 305
314 313 310 313 314 316 315 314 317 314 312 317 317 317 317 317 317 317 317 317 317 317 317 316 316 315 314 313 312 311 309 308 307 306 304 303 303 304 303 303 304 304 304 304 305 305 304 304 304
315 315 314 315 317 316 314 315 314 314 317 318 317 317 317 317 316 316 317 317 317 317 317 316 316 315 315 313 312 311 309 308 307 306 305 303 303 303 303 303 303 303 304 304 304 304 304 304 304
313 313 316 317 316 317 316 314 313 314 318 317 318 316 316 316 316 316 316 316 316 316 316 316 316 315 315 314 313 312 310 309 307 306 305 304 303 303 302 302 302 303 303 303 304 303 303 303 303
313 314 313 315 315 315 314 315 313 316 316 316 316 316 316 315 316 316 316 316 316 316 316 316 316 315 315 314 314 313 311 310 308 307 305 304 303 302 302 302 302 303 303 303 303 303 303 303 302
314 312 309 309 312 311 313 311 310 315 315 315 316 315 315 316 316 317 317 317 316 316 316 316 316 315 315 314 314 313 312 310 309 308 306 304 303 302 302 301 301 302 302 303 303 303 303 302 302
310 309 310 309 309 312 312 311 311 314 314 314 315 315 316 317 317 318 317 317 317 316 316 315 316 315 315 314 314 313 312 311 309 308 306 304 303 302 302 301 300 301 301 302 302 302 302 302 301
306 308 307 307 309 310 309 310 309 313 313 314 315 315 315 316 316 318 317 317 317 317 316 316 315 315 315 315 314 313 311 310 309 308 306 304 303 302 301 301 300 300 300 301 301 302 302 302 301
308 306 306 307 308 307 308 308 309 313 310 312 312 313 314 314 314 315 315 316 316 316 316 316 315 315 315 314 313 312 311 310 309 308 306 304 303 302 301 300 299 299 299 300 300 301 301 301 301
307 306 306 306 308 309 309 309 309 310 310 310 311 311 312 313 315 315 315 315 314 314 314 315 316 316 314 314 313 313 312 310 309 309 308 305 304 302 301 300 299 299 299 299 299 300 300 300 300
307 308 308 308 309 306 307 309 309 309 310 311 311 311 312 312 313 314 314 314 314 314 314 314 314 315 315 315 314 313 313 312 310 309 307 306 304 302 301 300 299 299 298 298 299 299 300 300 300
306 307 308 308 307 306 306 308 307 307 308 310 311 311 311 312 313 314 314 315 314 314 314 314 314 313 314 315 314 313 311 310 309 309 307 305 304 302 301 301 299 298 298 298 298 298 298 299 299
309 307 308 308 308 309 308 311 308 311 310 306 309 311 313 314 314 314 314 314 314 314 314 314 314 313 314 313 312 313 313 313 313 312 311 309 306 304 303 301 299 298 298 297 297 297 297 298 298
309 308 308 308 307 307 308 307 311 308 308 308 307 311 313 314 312 313 314 314 314 314 313 313 314 313 313 313 313 312 311 312 312 311 311 309 307 305 303 302 300 298 297 297 296 296 297 297 297
308 309 307 304 306 310 309 308 310 308 309 309 309 314 314 313 313 314 313 313 314 314 313 311 312 313 312 312 311 312 312 310 310 310 310 309 307 305 303 301 300 299 298 297 296 296 296 296 296
308 308 309 309 309 313 307 308 312 309 308 309 310 313 314 313 313 312 313 313 313 313 313 312 311 311 311 311 310 310 310 308 309 309 310 309 308 306 305 303 301 300 298 297 296 295 295 295 295
306 307 308 308 310 314 307 312 313 308 309 311 309 310 312 312 312 312 313 313 312 313 313 311 310 310 310 309 310 308 307 308 309 309 308 309 308 308 307 305 302 301 300 298 296 295 295 294 294
306 308 307 308 298 303 311 310 312 309 307 307 308 309 311 310 310 313 313 312 312 312 313 313 310 310 309 308 308 308 308 307 309 309 309 308 307 307 306 305 303 302 300 298 297 296 295 294 294
307 306 308 305 311 309 311 310 313 312 310 308 306 306 311 312 313 313 313 312 311 312 313 312 310 309 309 309 308 307 307 307 307 307 309 309 308 307 306 305 303 301 300 298 297 297 295 294 293
305 307 307 307 310 315 316 314 313 311 309 307 309 311 311 311 311 310 308 308 308 309 310 309 308 309 308 309 309 308 307 307 307 306 306 307 307 307 307 306 304 302 301 298 298 297 296 294 293
308 312 312 313 314 310 312 314 312 311 310 309 310 311 308 304 304 304 303 304 304 306 307 308 308 305 305 305 304 304 305 306 305 307 307 307 306 305 304 304 304 302 301 300 299 297 297 295 294

GFSSGP_850_thetae_033.txt.gz
Theta_e
314 315 317 321 318 317 318 319 316 315 316 315 317 318 318 318 320 319 321 323 324 315 315 315 316 327 333 332 330 328 326 326 324 326 325 324 322 321 321 322 322 322 322 319 319 320 319 320 321
313 316 319 323 318 316 313 315 318 316 315 317 317 317 317 319 320 321 322 322 323 320 314 313 315 318 334 333 330 329 331 331 330 331 330 326 319 319 322 322 321 321 320 318 314 313 312 312 312
316 318 321 315 313 314 313 315 315 315 316 317 317 318 318 319 320 321 321 321 321 321 317 314 314 313 324 327 329 329 333 332 332 332 329 322 320 320 320 319 318 315 313 312 312 310 307 306 306
316 319 317 318 318 316 315 316 313 315 315 316 316 315 318 320 319 320 320 321 321 321 318 315 313 313 320 322 325 331 331 333 331 326 316 317 317 315 314 313 312 311 311 308 305 304 304 304 305
317 318 312 313 313 313 312 314 314 314 315 315 316 316 316 317 317 319 318 320 321 320 319 316 314 314 319 331 332 332 331 330 326 317 315 314 314 313 311 311 309 306 304 304 304 304 305 306 306
316 315 315 314 312 312 312 315 314 313 314 314 315 315 317 317 317 317 318 318 320 320 319 316 314 314 316 318 316 314 315 315 317 314 313 312 311 309 307 306 304 304 303 304 304 306 306 307 307
315 313 313 313 314 314 315 314 314 314 314 315 316 315 317 317 317 317 317 317 317 319 319 318 314 314 314 314 314 314 314 314 313 312 311 310 308 306 304 304 303 304 304 305 306 307 307 307 307
317 313 314 312 314 314 314 314 315 315 316 316 316 315 316 318 318 318 317 317 317 317 318 319 316 314 313 313 314 314 314 313 311 311 309 307 306 304 303 303 303 304 305 306 306 306 306 306 306
316 312 312 313 311 313 314 314 315 315 316 315 317 317 318 317 317 317 317 317 317 317 316 317 318 315 314 313 313 314 313 312 310 309 308 307 305 303 303 303 304 304 305 305 305 305 306 306 306
314 311 311 310 309 312 314 314 316 315 315 315 316 317 317 317 317 317 317 317 317 317 317 316 317 317 314 314 313 314 313 312 310 308 308 306 304 303 303 303 304 305 305 305 305 305 305 305 305
313 313 310 312 312 313 313 313 315 314 313 317 317 318 317 317 316 316 316 316 317 317 317 317 316 316 316 314 314 313 313 312 310 308 308 306 304 303 303 303 303 304 304 304 304 304 304 304 304
314 314 313 314 315 315 313 315 313 315 316 316 317 317 317 317 317 316 316 316 316 316 317 317 316 316 316 315 314 314 313 312 310 309 308 307 304 303 303 303 303 303 303 304 304 304 304 304 304
313 313 315 316 315 315 315 314 313 314 315 315 316 316 316 315 316 316 315 316 315 316 316 316 316 316 316 315 315 314 313 312 311 309 308 307 305 304 303 303 303 303 304 304 304 304 304 304 304
312 313 313 314 314 314 313 313 312 314 314 314 314 314 314 315 315 315 315 316 316 316 316 316 316 316 316 316 315 315 314 313 311 309 308 307 306 304 303 303 303 303 303 303 303 303 303 303 303
313 312 308 309 311 310 311 312 309 314 314 314 314 314 314 315 314 315 316 317 317 316 315 315 315 315 316 316 315 315 314 314 312 311 309 307 306 304 303 302 302 302 302 302 303 303 303 302 302
309 308 309 309 308 310 312 311 311 312 313 313 314 314 314 314 314 314 315 316 317 316 316 316 315 315 315 315 315 315 314 314 313 311 309 308 306 304 302 302 301 301 301 302 302 302 302 301 301
306 308 306 307 307 309 310 310 310 312 311 312 312 312 313 313 314 314 314 314 314 314 316 316 316 315 315 315 315 315 314 314 313 312 310 309 306 304 302 301 301 300 300 301 301 301 301 301 301
308 306 305 307 309 306 308 309 309 310 310 309 310 310 311 312 314 314 314 314 314 314 314 314 314 315 315 314 314 314 314 313 313 312 311 310 307 305 303 302 300 300 300 300 300 301 301 300 300
307 305 305 305 307 306 309 308 308 309 308 309 310 310 309 310 313 314 313 313 313 313 313 313 313 313 313 314 313 313 314 314 313 312 311 310 307 306 305 302 301 300 300 300 300 300 300 300 300
307 308 308 308 307 305 306 308 309 309 309 310 310 310 310 312 314 314 313 312 312 313 313 313 313 313 312 312 312 312 313 313 313 312 311 309 307 306 304 303 302 301 300 299 298 299 299 299 299
305 307 308 307 305 305 305 308 307 308 308 310 311 310 312 312 313 313 313 313 313 313 312 312 312 313 313 312 311 311 311 310 312 312 311 310 308 307 305 303 302 301 300 299 299 299 299 299 299
309 306 307 307 307 309 307 310 311 312 310 309 309 312 312 312 312 312 312 312 313 313 313 314 313 312 311 311 311 312 311 312 313 313 312 311 309 307 304 303 302 301 300 299 299 298 298 298 298
308 308 307 306 306 307 307 308 308 308 311 309 308 312 311 311 311 311 312 313 313 314 314 313 313 312 310 310 309 309 310 311 310 309 311 310 309 307 305 304 302 301 300 299 298 298 297 297 297
307 308 306 303 305 309 308 309 310 308 310 309 309 311 310 311 312 311 312 313 313 313 312 312 313 313 311 309 308 309 308 308 308 309 309 309 308 307 306 305 303 302 300 299 298 297 296 297 297
307 307 310 311 309 315 306 307 312 309 311 308 306 309 310 311 311 312 312 311 310 309 310 312 313 311 309 309 307 306 307 307 307 307 307 307 308 308 307 306 304 302 301 300 298 297 296 296 296
307 308 313 313 312 316 306 311 312 308 309 309 308 309 311 313 310 308 309 309 309 310 310 311 312 311 308 306 305 305 305 305 305 306 306 306 307 307 308 307 306 304 302 301 299 297 296 296 296
306 309 308 310 297 306 313 313 311 306 307 307 307 310 307 304 307 307 307 305 306 307 308 308 310 308 307 305 304 303 303 303 303 304 304 304 304 305 305 306 306 305 303 302 300 298 298 296 296
307 306 309 308 313 315 313 312 312 310 310 306 305 301 301 302 303 303 303 304 304 305 306 307 306 306 306 306 305 304 303 302 302 302 302 302 303 304 304 305 305 305 304 302 300 298 297 296 295
312 308 307 307 310 316 316 314 310 309 305 302 302 301 298 298 298 299 300 299 298 299 300 301 302 302 303 305 306 306 304 302 301 301 302 302 302 302 302 304 304 304 304 302 300 299 298 296 295
307 310 310 312 313 311 313 314 311 308 303 299 298 296 294 293 293 293 294 295 296 296 296 295 297 298 297 297 301 303 303 303 301 300 301 302 303 302 302 301 302 303 303 302 301 299 299 298 296